FREEDOM

Last updated on Fri Feb 10 2017 00:15:03 GMT+0000 (Coordinated Universal Time)

1 41934U 98067KW 17040.19189554 .00008786 00000-0 13448-3 0 9997 2 41934 51.6469 316.2457 0009649 154.1852 205.9619 15.55179162 3687
UTC large
Height (km)
Speed (km/s)
/
Latitude / Longitude
Inclination (degrees)
Orbital Period (minutes)
Azimuth
Elevation
Range (km)
Doppler Factor

Next 0 passes for location: London (51.5072 / 0.1276)

Sorry there are no passes over London.